Time,TemperatureF,DewpointF,PressureIn,WindDirection,WindDirectionDegrees,WindSpeedMPH,WindSpeedGustMPH,Humidity,HourlyPrecipIn,Conditions,Clouds,dailyrainin,SolarRadiationWatts/m^2,SoftwareType,DateUTC
2013-07-25 00:01:00,67.9,54.8,29.94,North,355,6.0,16.0,63,0.00,,,0.00,0,HR-IXPWINDi_r2_v1.2.,2013-07-25 04:01:00,
2013-07-25 00:06:00,67.7,55.0,29.94,NNE,13,10.0,14.0,64,0.00,,,0.00,0,HR-IXPWINDi_r2_v1.2.,2013-07-25 04:06:00,
2013-07-25 00:11:00,67.5,54.8,29.94,NNE,13,5.0,14.0,64,0.00,,,0.00,0,HR-IXPWINDi_r2_v1.2.,2013-07-25 04:11:00,
2013-07-25 00:16:00,67.3,55.1,29.95,North,355,6.0,13.0,65,0.00,,,0.00,0,HR-IXPWINDi_r2_v1.2.,2013-07-25 04:16:00,
2013-07-25 00:21:00,67.1,55.3,29.94,NNW,348,6.0,13.0,66,0.00,,,0.00,0,HR-IXPWINDi_r2_v1.2.,2013-07-25 04:21:00,
2013-07-25 00:26:00,66.9,55.5,29.95,North,5,8.0,15.0,67,0.00,,,0.00,0,HR-IXPWINDi_r2_v1.2.,2013-07-25 04:26:00,
2013-07-25 00:31:00,66.7,55.3,29.95,NNE,13,9.0,15.0,67,0.00,,,0.00,0,HR-IXPWINDi_r2_v1.2.,2013-07-25 04:31:00,
2013-07-25 00:37:00,66.5,55.1,29.95,North,9,4.0,14.0,67,0.00,,,0.00,0,HR-IXPWINDi_r2_v1.2.,2013-07-25 04:37:00,
2013-07-25 00:42:00,66.3,55.0,29.95,NNW,346,8.0,15.0,67,0.00,,,0.00,0,HR-IXPWINDi_r2_v1.2.,2013-07-25 04:42:00,
2013-07-25 00:47:00,66.2,54.9,29.96,NNE,13,8.0,15.0,67,0.00,,,0.00,0,HR-IXPWINDi_r2_v1.2.,2013-07-25 04:47:00,
2013-07-25 00:52:00,65.9,54.6,29.96,North,351,8.0,13.0,67,0.00,,,0.00,0,HR-IXPWINDi_r2_v1.2.,2013-07-25 04:52:00,
2013-07-25 00:57:00,65.7,54.4,29.96,North,350,7.0,13.0,67,0.00,,,0.00,0,HR-IXPWINDi_r2_v1.2.,2013-07-25 04:57:00,
2013-07-25 01:02:00,65.5,54.2,29.96,North,355,7.0,13.0,67,0.00,,,0.00,0,HR-IXPWINDi_r2_v1.2.,2013-07-25 05:02:00,
2013-07-25 01:07:00,65.4,54.1,29.96,NNE,24,2.0,13.0,67,0.00,,,0.00,0,HR-IXPWINDi_r2_v1.2.,2013-07-25 05:07:00,
2013-07-25 01:12:00,65.2,53.9,29.96,North,5,8.0,12.0,67,0.00,,,0.00,0,HR-IXPWINDi_r2_v1.2.,2013-07-25 05:12:00,
2013-07-25 01:17:00,65.1,53.8,29.96,NNW,348,5.0,12.0,67,0.00,,,0.00,0,HR-IXPWINDi_r2_v1.2.,2013-07-25 05:17:00,
2013-07-25 01:22:00,65.0,53.7,29.96,NNW,346,8.0,11.0,67,0.00,,,0.00,0,HR-IXPWINDi_r2_v1.2.,2013-07-25 05:22:00,
2013-07-25 01:28:00,64.8,53.5,29.97,North,360,6.0,11.0,67,0.00,,,0.00,0,HR-IXPWINDi_r2_v1.2.,2013-07-25 05:28:00,
2013-07-25 01:33:00,64.7,53.0,29.96,NNW,340,4.0,11.0,66,0.00,,,0.00,0,HR-IXPWINDi_r2_v1.2.,2013-07-25 05:33:00,
2013-07-25 01:38:00,64.5,53.2,29.97,North,9,4.0,11.0,67,0.00,,,0.00,0,HR-IXPWINDi_r2_v1.2.,2013-07-25 05:38:00,
2013-07-25 01:43:00,64.4,53.1,29.97,NW,325,3.0,9.0,67,0.00,,,0.00,0,HR-IXPWINDi_r2_v1.2.,2013-07-25 05:43:00,
2013-07-25 01:48:00,64.3,53.1,29.97,NNW,338,3.0,9.0,67,0.00,,,0.00,0,HR-IXPWINDi_r2_v1.2.,2013-07-25 05:48:00,
2013-07-25 01:53:00,64.1,52.9,29.96,North,9,8.0,12.0,67,0.00,,,0.00,0,HR-IXPWINDi_r2_v1.2.,2013-07-25 05:53:00,
2013-07-25 01:59:00,63.9,52.7,29.97,North,9,5.0,12.0,67,0.00,,,0.00,0,HR-IXPWINDi_r2_v1.2.,2013-07-25 05:59:00,
2013-07-25 02:04:00,63.7,52.5,29.97,North,9,4.0,11.0,67,0.00,,,0.00,0,HR-IXPWINDi_r2_v1.2.,2013-07-25 06:04:00,
2013-07-25 02:09:00,63.6,52.4,29.97,NNW,344,7.0,10.0,67,0.00,,,0.00,0,HR-IXPWINDi_r2_v1.2.,2013-07-25 06:09:00,
2013-07-25 02:14:00,63.5,52.3,29.97,North,9,7.0,8.0,67,0.00,,,0.00,0,HR-IXPWINDi_r2_v1.2.,2013-07-25 06:14:00,
2013-07-25 02:19:00,63.4,52.2,29.97,NNW,329,7.0,12.0,67,0.00,,,0.00,0,HR-IXPWINDi_r2_v1.2.,2013-07-25 06:19:00,
2013-07-25 02:24:00,63.3,52.1,29.97,NNE,27,6.0,12.0,67,0.00,,,0.00,0,HR-IXPWINDi_r2_v1.2.,2013-07-25 06:24:00,
2013-07-25 02:30:00,63.1,51.9,29.96,North,355,6.0,10.0,67,0.00,,,0.00,0,HR-IXPWINDi_r2_v1.2.,2013-07-25 06:30:00,
2013-07-25 02:35:00,63.0,52.2,29.96,NNE,32,9.0,11.0,68,0.00,,,0.00,0,HR-IXPWINDi_r2_v1.2.,2013-07-25 06:35:00,
2013-07-25 02:40:00,62.9,52.1,29.96,NNE,29,8.0,11.0,68,0.00,,,0.00,0,HR-IXPWINDi_r2_v1.2.,2013-07-25 06:40:00,
2013-07-25 02:45:00,62.7,52.3,29.97,North,355,6.0,12.0,69,0.00,,,0.00,0,HR-IXPWINDi_r2_v1.2.,2013-07-25 06:45:00,
2013-07-25 02:50:00,62.6,52.6,29.97,NNE,15,11.0,12.0,70,0.00,,,0.00,0,HR-IXPWINDi_r2_v1.2.,2013-07-25 06:50:00,
2013-07-25 02:55:00,62.6,52.2,29.98,NNW,328,4.0,12.0,69,0.00,,,0.00,0,HR-IXPWINDi_r2_v1.2.,2013-07-25 06:55:00,
2013-07-25 03:01:00,62.5,52.1,29.97,NW,318,5.0,9.0,69,0.00,,,0.00,0,HR-IXPWINDi_r2_v1.2.,2013-07-25 07:01:00,
2013-07-25 03:06:00,62.4,52.4,29.97,North,11,8.0,9.0,70,0.00,,,0.00,0,HR-IXPWINDi_r2_v1.2.,2013-07-25 07:06:00,
2013-07-25 03:11:00,62.2,51.8,29.97,NNW,342,4.0,10.0,69,0.00,,,0.00,0,HR-IXPWINDi_r2_v1.2.,2013-07-25 07:11:00,
2013-07-25 03:16:00,62.2,52.2,29.97,North,355,2.0,10.0,70,0.00,,,0.00,0,HR-IXPWINDi_r2_v1.2.,2013-07-25 07:16:00,
2013-07-25 03:22:00,62.1,52.1,29.98,North,11,4.0,9.0,70,0.00,,,0.00,0,HR-IXPWINDi_r2_v1.2.,2013-07-25 07:22:00,
2013-07-25 03:27:00,62.1,52.1,29.99,North,351,5.0,10.0,70,0.00,,,0.00,0,HR-IXPWINDi_r2_v1.2.,2013-07-25 07:27:00,
2013-07-25 03:32:00,62.1,52.1,29.99,North,351,3.0,10.0,70,0.00,,,0.00,0,HR-IXPWINDi_r2_v1.2.,2013-07-25 07:32:00,
2013-07-25 03:37:00,62.1,52.1,29.99,NNE,25,7.0,8.0,70,0.00,,,0.00,0,HR-IXPWINDi_r2_v1.2.,2013-07-25 07:37:00,
2013-07-25 03:42:00,62.0,52.0,29.98,NNE,19,5.0,8.0,70,0.00,,,0.00,0,HR-IXPWINDi_r2_v1.2.,2013-07-25 07:42:00,
2013-07-25 03:47:00,61.9,52.3,29.98,NNE,25,6.0,9.0,71,0.00,,,0.00,0,HR-IXPWINDi_r2_v1.2.,2013-07-25 07:47:00,
2013-07-25 03:53:00,61.8,52.2,29.98,NNE,21,6.0,10.0,71,0.00,,,0.00,0,HR-IXPWINDi_r2_v1.2.,2013-07-25 07:53:00,
2013-07-25 03:58:00,61.8,52.2,29.98,NNE,25,4.0,10.0,71,0.00,,,0.00,0,HR-IXPWINDi_r2_v1.2.,2013-07-25 07:58:00,
2013-07-25 04:03:00,61.7,52.1,29.99,North,355,6.0,8.0,71,0.00,,,0.00,0,HR-IXPWINDi_r2_v1.2.,2013-07-25 08:03:00,
2013-07-25 04:08:00,61.7,52.5,29.99,NNE,15,5.0,8.0,72,0.00,,,0.00,0,HR-IXPWINDi_r2_v1.2.,2013-07-25 08:08:00,
2013-07-25 04:13:00,61.7,52.1,29.99,NNW,345,4.0,8.0,71,0.00,,,0.00,0,HR-IXPWINDi_r2_v1.2.,2013-07-25 08:13:00,
2013-07-25 04:18:00,61.7,52.5,29.99,NNE,19,5.0,7.0,72,0.00,,,0.00,0,HR-IXPWINDi_r2_v1.2.,2013-07-25 08:18:00,
2013-07-25 04:23:00,61.6,52.4,29.99,North,355,5.0,9.0,72,0.00,,,0.00,0,HR-IXPWINDi_r2_v1.2.,2013-07-25 08:23:00,
2013-07-25 04:29:00,61.5,52.3,29.99,North,5,3.0,9.0,72,0.00,,,0.00,0,HR-IXPWINDi_r2_v1.2.,2013-07-25 08:29:00,
2013-07-25 04:34:00,61.5,52.7,30.00,NNW,327,4.0,6.0,73,0.00,,,0.00,0,HR-IXPWINDi_r2_v1.2.,2013-07-25 08:34:00,
2013-07-25 04:39:00,61.6,52.8,30.00,North,5,4.0,6.0,73,0.00,,,0.00,0,HR-IXPWINDi_r2_v1.2.,2013-07-25 08:39:00,
2013-07-25 04:45:00,61.4,52.6,30.00,North,9,4.0,6.0,73,0.00,,,0.00,0,HR-IXPWINDi_r2_v1.2.,2013-07-25 08:45:00,
2013-07-25 04:50:00,61.4,52.6,30.00,North,9,6.0,8.0,73,0.00,,,0.00,0,HR-IXPWINDi_r2_v1.2.,2013-07-25 08:50:00,
2013-07-25 04:55:00,61.4,52.6,30.00,North,5,1.0,8.0,73,0.00,,,0.00,0,HR-IXPWINDi_r2_v1.2.,2013-07-25 08:55:00,
2013-07-25 05:00:00,61.4,53.0,30.00,North,9,5.0,7.0,74,0.00,,,0.00,0,HR-IXPWINDi_r2_v1.2.,2013-07-25 09:00:00,
2013-07-25 05:06:00,61.5,53.1,30.00,North,5,6.0,8.0,74,0.00,,,0.00,0,HR-IXPWINDi_r2_v1.2.,2013-07-25 09:06:00,
2013-07-25 05:11:00,61.4,53.0,30.00,North,5,8.0,10.0,74,0.00,,,0.00,0,HR-IXPWINDi_r2_v1.2.,2013-07-25 09:11:00,
2013-07-25 05:16:00,61.4,53.0,30.00,NNE,32,5.0,10.0,74,0.00,,,0.00,0,HR-IXPWINDi_r2_v1.2.,2013-07-25 09:16:00,
2013-07-25 05:22:00,61.4,53.0,30.01,NNW,348,5.0,11.0,74,0.00,,,0.00,0,HR-IXPWINDi_r2_v1.2.,2013-07-25 09:22:00,
2013-07-25 05:27:00,61.4,53.0,30.01,North,355,4.0,11.0,74,0.00,,,0.00,0,HR-IXPWINDi_r2_v1.2.,2013-07-25 09:27:00,
2013-07-25 05:32:00,61.3,53.2,30.01,NNW,345,5.0,8.0,75,0.00,,,0.00,0,HR-IXPWINDi_r2_v1.2.,2013-07-25 09:32:00,
2013-07-25 05:37:00,61.4,53.0,30.01,NNE,26,6.0,8.0,74,0.00,,,0.00,0,HR-IXPWINDi_r2_v1.2.,2013-07-25 09:37:00,
2013-07-25 05:42:00,61.8,52.6,30.01,NE,42,6.0,13.0,72,0.00,,,0.00,0,HR-IXPWINDi_r2_v1.2.,2013-07-25 09:42:00,
2013-07-25 05:47:00,62.1,52.5,30.01,North,360,9.0,15.0,71,0.00,,,0.00,0,HR-IXPWINDi_r2_v1.2.,2013-07-25 09:47:00,
2013-07-25 05:53:00,62.1,52.5,30.01,NNE,15,4.0,15.0,71,0.00,,,0.00,0,HR-IXPWINDi_r2_v1.2.,2013-07-25 09:53:00,
2013-07-25 05:58:00,62.1,52.5,30.02,NNE,16,10.0,15.0,71,0.00,,,0.00,0,HR-IXPWINDi_r2_v1.2.,2013-07-25 09:58:00,
2013-07-25 06:03:00,62.2,52.6,30.02,NE,44,7.0,14.0,71,0.00,,,0.00,5,HR-IXPWINDi_r2_v1.2.,2013-07-25 10:03:00,
2013-07-25 06:08:00,62.2,52.6,30.02,NNE,22,11.0,15.0,71,0.00,,,0.00,7,HR-IXPWINDi_r2_v1.2.,2013-07-25 10:08:00,
2013-07-25 06:13:00,62.1,52.5,30.02,North,9,6.0,15.0,71,0.00,,,0.00,9,HR-IXPWINDi_r2_v1.2.,2013-07-25 10:13:00,
2013-07-25 06:18:00,62.1,52.5,30.02,NNE,26,13.0,13.0,71,0.00,,,0.00,11,HR-IXPWINDi_r2_v1.2.,2013-07-25 10:18:00,
2013-07-25 06:24:00,62.1,52.5,30.02,NE,35,7.0,16.0,71,0.00,,,0.00,9,HR-IXPWINDi_r2_v1.2.,2013-07-25 10:24:00,
2013-07-25 06:29:00,62.0,52.4,30.02,NE,40,12.0,16.0,71,0.00,,,0.00,14,HR-IXPWINDi_r2_v1.2.,2013-07-25 10:29:00,
2013-07-25 06:34:00,62.0,52.4,30.02,NNE,22,9.0,18.0,71,0.00,,,0.00,21,HR-IXPWINDi_r2_v1.2.,2013-07-25 10:34:00,
2013-07-25 06:39:00,62.0,52.8,30.02,NE,49,5.0,18.0,72,0.00,,,0.00,30,HR-IXPWINDi_r2_v1.2.,2013-07-25 10:39:00,
2013-07-25 06:44:00,62.1,52.9,30.03,NE,40,5.0,13.0,72,0.00,,,0.00,18,HR-IXPWINDi_r2_v1.2.,2013-07-25 10:44:00,
2013-07-25 06:49:00,62.1,52.9,30.03,ENE,67,10.0,15.0,72,0.00,,,0.00,23,HR-IXPWINDi_r2_v1.2.,2013-07-25 10:49:00,
2013-07-25 06:55:00,62.0,52.8,30.03,NE,54,7.0,16.0,72,0.00,,,0.00,25,HR-IXPWINDi_r2_v1.2.,2013-07-25 10:55:00,
2013-07-25 07:00:00,62.0,52.8,30.03,NNE,26,8.0,20.0,72,0.00,,,0.00,18,HR-IXPWINDi_r2_v1.2.,2013-07-25 11:00:00,
2013-07-25 07:05:00,61.9,52.7,30.03,NNE,14,7.0,20.0,72,0.00,,,0.00,16,HR-IXPWINDi_r2_v1.2.,2013-07-25 11:05:00,
2013-07-25 07:10:00,61.9,52.7,30.03,ENE,66,12.0,14.0,72,0.00,,,0.00,28,HR-IXPWINDi_r2_v1.2.,2013-07-25 11:10:00,
2013-07-25 07:15:00,61.9,52.7,30.03,NE,34,10.0,15.0,72,0.00,,,0.00,33,HR-IXPWINDi_r2_v1.2.,2013-07-25 11:15:00,
2013-07-25 07:20:00,61.9,52.7,30.04,NE,36,6.0,15.0,72,0.00,,,0.00,32,HR-IXPWINDi_r2_v1.2.,2013-07-25 11:20:00,
2013-07-25 07:25:00,61.9,52.7,30.04,North,360,8.0,15.0,72,0.00,,,0.00,30,HR-IXPWINDi_r2_v1.2.,2013-07-25 11:25:00,
2013-07-25 07:30:00,61.9,52.7,30.03,NNE,28,7.0,14.0,72,0.00,,,0.00,39,HR-IXPWINDi_r2_v1.2.,2013-07-25 11:30:00,
2013-07-25 07:35:00,61.8,53.0,30.04,North,5,7.0,16.0,73,0.00,,,0.00,49,HR-IXPWINDi_r2_v1.2.,2013-07-25 11:35:00,
2013-07-25 07:41:00,61.9,53.1,30.04,NNW,347,11.0,16.0,73,0.00,,,0.00,70,HR-IXPWINDi_r2_v1.2.,2013-07-25 11:41:00,
2013-07-25 07:46:00,62.0,53.2,30.05,NNE,21,9.0,16.0,73,0.00,,,0.00,53,HR-IXPWINDi_r2_v1.2.,2013-07-25 11:46:00,
2013-07-25 07:51:00,61.9,53.1,30.05,NNE,15,13.0,16.0,73,0.00,,,0.00,23,HR-IXPWINDi_r2_v1.2.,2013-07-25 11:51:00,
2013-07-25 07:56:00,61.9,53.5,30.06,NNE,30,7.0,16.0,74,0.00,,,0.00,28,HR-IXPWINDi_r2_v1.2.,2013-07-25 11:56:00,
2013-07-25 08:02:00,61.8,53.4,30.06,NNE,32,6.0,16.0,74,0.00,,,0.00,26,HR-IXPWINDi_r2_v1.2.,2013-07-25 12:02:00,
2013-07-25 08:07:00,61.8,53.4,30.06,NE,35,6.0,13.0,74,0.00,,,0.00,35,HR-IXPWINDi_r2_v1.2.,2013-07-25 12:07:00,
2013-07-25 08:12:00,61.8,53.4,30.06,NNE,32,8.0,14.0,74,0.00,,,0.00,40,HR-IXPWINDi_r2_v1.2.,2013-07-25 12:12:00,
2013-07-25 08:17:00,61.7,53.3,30.06,NE,34,6.0,15.0,74,0.00,,,0.00,37,HR-IXPWINDi_r2_v1.2.,2013-07-25 12:17:00,
2013-07-25 08:22:00,61.7,53.6,30.07,NNE,32,10.0,15.0,75,0.00,,,0.00,44,HR-IXPWINDi_r2_v1.2.,2013-07-25 12:22:00,
2013-07-25 08:27:00,61.6,53.5,30.07,North,11,7.0,15.0,75,0.00,,,0.00,58,HR-IXPWINDi_r2_v1.2.,2013-07-25 12:27:00,
2013-07-25 08:32:00,61.7,53.3,30.06,ENE,73,8.0,18.0,74,0.00,,,0.00,91,HR-IXPWINDi_r2_v1.2.,2013-07-25 12:32:00,
2013-07-25 08:38:00,61.8,53.7,30.07,NNE,33,12.0,18.0,75,0.00,,,0.00,90,HR-IXPWINDi_r2_v1.2.,2013-07-25 12:38:00,
2013-07-25 08:43:00,61.9,53.8,30.07,North,5,7.0,17.0,75,0.00,,,0.00,160,HR-IXPWINDi_r2_v1.2.,2013-07-25 12:43:00,
2013-07-25 08:48:00,62.1,53.7,30.07,North,10,12.0,18.0,74,0.00,,,0.00,127,HR-IXPWINDi_r2_v1.2.,2013-07-25 12:48:00,
2013-07-25 08:53:00,62.1,53.7,30.06,NNE,21,9.0,18.0,74,0.00,,,0.00,199,HR-IXPWINDi_r2_v1.2.,2013-07-25 12:53:00,
2013-07-25 08:59:00,62.3,53.8,30.06,North,5,11.0,18.0,74,0.00,,,0.00,271,HR-IXPWINDi_r2_v1.2.,2013-07-25 12:59:00,
2013-07-25 09:04:00,62.6,53.8,30.07,North,5,8.0,17.0,73,0.00,,,0.00,193,HR-IXPWINDi_r2_v1.2.,2013-07-25 13:04:00,
2013-07-25 09:09:00,62.6,53.8,30.08,NNE,33,7.0,17.0,73,0.00,,,0.00,116,HR-IXPWINDi_r2_v1.2.,2013-07-25 13:09:00,
2013-07-25 09:14:00,62.4,53.9,30.08,NNE,30,8.0,16.0,74,0.00,,,0.00,107,HR-IXPWINDi_r2_v1.2.,2013-07-25 13:14:00,
2013-07-25 09:19:00,62.2,53.7,30.08,NNE,15,10.0,16.0,74,0.00,,,0.00,167,HR-IXPWINDi_r2_v1.2.,2013-07-25 13:19:00,
2013-07-25 09:24:00,62.4,53.9,30.07,NE,40,9.0,16.0,74,0.00,,,0.00,190,HR-IXPWINDi_r2_v1.2.,2013-07-25 13:24:00,
2013-07-25 09:29:00,62.3,53.8,30.08,NNE,21,7.0,16.0,74,0.00,,,0.00,156,HR-IXPWINDi_r2_v1.2.,2013-07-25 13:29:00,
2013-07-25 09:34:00,62.5,54.4,30.07,NNE,19,6.0,14.0,75,0.00,,,0.00,169,HR-IXPWINDi_r2_v1.2.,2013-07-25 13:34:00,
2013-07-25 09:39:00,62.5,54.4,30.08,North,5,11.0,17.0,75,0.00,,,0.00,253,HR-IXPWINDi_r2_v1.2.,2013-07-25 13:39:00,
2013-07-25 09:45:00,62.4,54.3,30.07,NNE,19,7.0,20.0,75,0.00,,,0.00,230,HR-IXPWINDi_r2_v1.2.,2013-07-25 13:45:00,
2013-07-25 09:50:00,62.5,54.4,30.07,NNE,22,5.0,20.0,75,0.00,,,0.00,188,HR-IXPWINDi_r2_v1.2.,2013-07-25 13:50:00,
2013-07-25 09:55:00,62.6,54.5,30.08,NNE,30,10.0,17.0,75,0.00,,,0.00,144,HR-IXPWINDi_r2_v1.2.,2013-07-25 13:55:00,
2013-07-25 10:00:00,62.4,54.7,30.09,NE,40,12.0,15.0,76,0.00,,,0.00,132,HR-IXPWINDi_r2_v1.2.,2013-07-25 14:00:00,
2013-07-25 10:06:00,62.3,54.6,30.09,NE,36,13.0,15.0,76,0.00,,,0.00,127,HR-IXPWINDi_r2_v1.2.,2013-07-25 14:06:00,
2013-07-25 10:11:00,62.3,54.9,30.09,NNE,26,6.0,15.0,77,0.00,,,0.00,142,HR-IXPWINDi_r2_v1.2.,2013-07-25 14:11:00,
2013-07-25 10:16:00,62.3,54.6,30.09,North,351,9.0,19.0,76,0.00,,,0.00,142,HR-IXPWINDi_r2_v1.2.,2013-07-25 14:16:00,
2013-07-25 10:21:00,62.2,54.5,30.09,NE,44,8.0,19.0,76,0.00,,,0.00,111,HR-IXPWINDi_r2_v1.2.,2013-07-25 14:21:00,
2013-07-25 10:27:00,62.2,54.8,30.09,NNE,28,8.0,18.0,77,0.00,,,0.00,111,HR-IXPWINDi_r2_v1.2.,2013-07-25 14:27:00,
2013-07-25 10:32:00,62.1,54.7,30.08,NNE,33,9.0,18.0,77,0.00,,,0.00,116,HR-IXPWINDi_r2_v1.2.,2013-07-25 14:32:00,
2013-07-25 10:37:00,62.2,54.8,30.09,North,11,6.0,18.0,77,0.00,,,0.00,113,HR-IXPWINDi_r2_v1.2.,2013-07-25 14:37:00,
2013-07-25 10:42:00,62.3,54.9,30.08,North,11,10.0,15.0,77,0.00,,,0.00,128,HR-IXPWINDi_r2_v1.2.,2013-07-25 14:42:00,
2013-07-25 10:47:00,62.2,54.8,30.09,NNE,26,12.0,18.0,77,0.00,,,0.00,139,HR-IXPWINDi_r2_v1.2.,2013-07-25 14:47:00,
2013-07-25 10:53:00,62.2,54.8,30.09,ENE,57,11.0,18.0,77,0.00,,,0.00,151,HR-IXPWINDi_r2_v1.2.,2013-07-25 14:53:00,
2013-07-25 10:58:00,62.2,54.8,30.09,NE,41,8.0,18.0,77,0.00,,,0.00,113,HR-IXPWINDi_r2_v1.2.,2013-07-25 14:58:00,
2013-07-25 11:03:00,62.2,54.8,30.09,NE,34,7.0,16.0,77,0.00,,,0.00,125,HR-IXPWINDi_r2_v1.2.,2013-07-25 15:03:00,
2013-07-25 11:08:00,62.3,54.9,30.09,NE,51,10.0,20.0,77,0.00,,,0.00,144,HR-IXPWINDi_r2_v1.2.,2013-07-25 15:08:00,
2013-07-25 11:13:00,62.4,55.0,30.09,NE,46,5.0,20.0,77,0.00,,,0.00,127,HR-IXPWINDi_r2_v1.2.,2013-07-25 15:13:00,
2013-07-25 11:18:00,62.4,55.0,30.09,NE,37,9.0,16.0,77,0.00,,,0.00,174,HR-IXPWINDi_r2_v1.2.,2013-07-25 15:18:00,
2013-07-25 11:23:00,62.4,55.0,30.09,NNE,24,8.0,17.0,77,0.00,,,0.00,204,HR-IXPWINDi_r2_v1.2.,2013-07-25 15:23:00,
2013-07-25 11:28:00,62.6,55.2,30.09,North,5,9.0,17.0,77,0.00,,,0.00,176,HR-IXPWINDi_r2_v1.2.,2013-07-25 15:28:00,
2013-07-25 11:34:00,62.6,55.6,30.09,NNE,25,13.0,15.0,78,0.00,,,0.00,227,HR-IXPWINDi_r2_v1.2.,2013-07-25 15:34:00,
2013-07-25 11:39:00,62.9,55.5,30.09,NNE,24,12.0,15.0,77,0.00,,,0.00,294,HR-IXPWINDi_r2_v1.2.,2013-07-25 15:39:00,
2013-07-25 11:44:00,63.3,55.9,30.08,North,5,8.0,17.0,77,0.00,,,0.00,355,HR-IXPWINDi_r2_v1.2.,2013-07-25 15:44:00,
2013-07-25 11:49:00,63.6,55.8,30.09,NNE,17,9.0,17.0,76,0.00,,,0.00,279,HR-IXPWINDi_r2_v1.2.,2013-07-25 15:49:00,
2013-07-25 11:54:00,63.5,55.7,30.09,NE,45,7.0,16.0,76,0.00,,,0.00,301,HR-IXPWINDi_r2_v1.2.,2013-07-25 15:54:00,
2013-07-25 12:00:00,63.8,56.0,30.09,NE,36,17.0,17.0,76,0.00,,,0.00,320,HR-IXPWINDi_r2_v1.2.,2013-07-25 16:00:00,
2013-07-25 12:05:00,63.6,55.8,30.09,NNE,33,14.0,17.0,76,0.00,,,0.00,269,HR-IXPWINDi_r2_v1.2.,2013-07-25 16:05:00,
2013-07-25 12:10:00,63.4,55.6,30.09,NNE,22,15.0,18.0,76,0.00,,,0.00,248,HR-IXPWINDi_r2_v1.2.,2013-07-25 16:10:00,
2013-07-25 12:15:00,63.4,56.0,30.10,NNE,32,18.0,18.0,77,0.00,,,0.00,195,HR-IXPWINDi_r2_v1.2.,2013-07-25 16:15:00,
2013-07-25 12:20:00,63.2,55.8,30.09,NNE,16,6.0,18.0,77,0.00,,,0.00,193,HR-IXPWINDi_r2_v1.2.,2013-07-25 16:20:00,
2013-07-25 12:26:00,63.4,56.4,30.10,North,9,14.0,18.0,78,0.00,,,0.00,195,HR-IXPWINDi_r2_v1.2.,2013-07-25 16:26:00,
2013-07-25 12:31:00,63.3,56.3,30.10,North,350,9.0,15.0,78,0.00,,,0.00,227,HR-IXPWINDi_r2_v1.2.,2013-07-25 16:31:00,
2013-07-25 12:36:00,63.4,56.0,30.09,ENE,66,9.0,16.0,77,0.00,,,0.00,172,HR-IXPWINDi_r2_v1.2.,2013-07-25 16:36:00,
2013-07-25 12:41:00,63.4,56.4,30.09,NE,42,3.0,16.0,78,0.00,,,0.00,158,HR-IXPWINDi_r2_v1.2.,2013-07-25 16:41:00,
2013-07-25 12:46:00,63.4,56.4,30.09,NNE,20,4.0,15.0,78,0.00,,,0.00,149,HR-IXPWINDi_r2_v1.2.,2013-07-25 16:46:00,
2013-07-25 12:51:00,63.2,56.2,30.09,NNE,28,6.0,19.0,78,0.00,,,0.00,130,HR-IXPWINDi_r2_v1.2.,2013-07-25 16:51:00,
2013-07-25 12:57:00,63.1,56.1,30.10,NNE,14,11.0,19.0,78,0.00,,,0.00,153,HR-IXPWINDi_r2_v1.2.,2013-07-25 16:57:00,
2013-07-25 13:02:00,63.3,56.3,30.09,NNE,14,5.0,15.0,78,0.00,,,0.00,183,HR-IXPWINDi_r2_v1.2.,2013-07-25 17:02:00,
2013-07-25 13:07:00,63.2,56.2,30.09,NNE,23,8.0,14.0,78,0.00,,,0.00,183,HR-IXPWINDi_r2_v1.2.,2013-07-25 17:07:00,
2013-07-25 13:12:00,63.0,56.0,30.09,NNE,16,9.0,14.0,78,0.00,,,0.00,169,HR-IXPWINDi_r2_v1.2.,2013-07-25 17:12:00,
2013-07-25 13:17:00,63.0,56.0,30.09,NE,36,10.0,15.0,78,0.00,,,0.00,176,HR-IXPWINDi_r2_v1.2.,2013-07-25 17:17:00,
2013-07-25 13:23:00,63.1,56.1,30.09,NNE,26,16.0,16.0,78,0.00,,,0.00,211,HR-IXPWINDi_r2_v1.2.,2013-07-25 17:23:00,
2013-07-25 13:28:00,63.1,56.1,30.09,NNE,23,8.0,17.0,78,0.00,,,0.00,248,HR-IXPWINDi_r2_v1.2.,2013-07-25 17:28:00,
2013-07-25 13:33:00,63.4,56.4,30.09,NNE,22,16.0,17.0,78,0.00,,,0.00,274,HR-IXPWINDi_r2_v1.2.,2013-07-25 17:33:00,
2013-07-25 13:38:00,63.3,56.6,30.09,NNE,13,11.0,16.0,79,0.00,,,0.00,220,HR-IXPWINDi_r2_v1.2.,2013-07-25 17:38:00,
2013-07-25 13:43:00,63.3,56.6,30.09,NE,37,14.0,16.0,79,0.00,,,0.00,232,HR-IXPWINDi_r2_v1.2.,2013-07-25 17:43:00,
2013-07-25 13:48:00,62.8,56.5,30.09,North,10,11.0,18.0,80,0.00,,,0.00,244,HR-IXPWINDi_r2_v1.2.,2013-07-25 17:48:00,
2013-07-25 13:54:00,62.6,56.6,30.09,NNE,13,9.0,19.0,81,0.00,,,0.00,260,HR-IXPWINDi_r2_v1.2.,2013-07-25 17:54:00,
2013-07-25 13:59:00,62.8,56.8,30.09,North,5,3.0,19.0,81,0.00,,,0.00,297,HR-IXPWINDi_r2_v1.2.,2013-07-25 17:59:00,
2013-07-25 14:04:00,62.9,56.9,30.09,North,11,15.0,15.0,81,0.00,,,0.00,297,HR-IXPWINDi_r2_v1.2.,2013-07-25 18:04:00,
2013-07-25 14:09:00,62.9,56.9,30.08,NNE,19,5.0,17.0,81,0.00,,,0.00,304,HR-IXPWINDi_r2_v1.2.,2013-07-25 18:09:00,
2013-07-25 14:14:00,63.0,57.4,30.09,NE,52,8.0,17.0,82,0.00,,,0.00,257,HR-IXPWINDi_r2_v1.2.,2013-07-25 18:14:00,
2013-07-25 14:19:00,62.9,57.3,30.08,NNE,24,10.0,15.0,82,0.00,,,0.00,257,HR-IXPWINDi_r2_v1.2.,2013-07-25 18:19:00,
2013-07-25 14:25:00,62.8,57.5,30.08,North,5,9.0,14.0,83,0.00,,,0.00,216,HR-IXPWINDi_r2_v1.2.,2013-07-25 18:25:00,
2013-07-25 14:30:00,62.5,57.2,30.08,NNE,19,10.0,16.0,83,0.00,,,0.00,211,HR-IXPWINDi_r2_v1.2.,2013-07-25 18:30:00,
2013-07-25 14:35:00,62.3,57.0,30.08,NNE,24,13.0,16.0,83,0.00,,,0.00,188,HR-IXPWINDi_r2_v1.2.,2013-07-25 18:35:00,
2013-07-25 14:41:00,62.1,57.1,30.09,NE,37,3.0,16.0,84,0.00,,,0.00,178,HR-IXPWINDi_r2_v1.2.,2013-07-25 18:41:00,
2013-07-25 14:46:00,62.1,57.1,30.09,North,360,7.0,16.0,84,0.00,,,0.00,169,HR-IXPWINDi_r2_v1.2.,2013-07-25 18:46:00,
2013-07-25 14:51:00,62.0,57.4,30.09,NNE,17,6.0,16.0,85,0.00,,,0.00,149,HR-IXPWINDi_r2_v1.2.,2013-07-25 18:51:00,
2013-07-25 14:56:00,62.2,57.6,30.09,NNW,344,10.0,15.0,85,0.00,,,0.00,125,HR-IXPWINDi_r2_v1.2.,2013-07-25 18:56:00,
2013-07-25 15:02:00,62.1,57.8,30.09,NNE,27,4.0,15.0,86,0.00,,,0.00,90,HR-IXPWINDi_r2_v1.2.,2013-07-25 19:02:00,
2013-07-25 15:07:00,62.1,57.8,30.09,ENE,59,10.0,15.0,86,0.00,,,0.00,113,HR-IXPWINDi_r2_v1.2.,2013-07-25 19:07:00,
2013-07-25 15:12:00,61.9,57.6,30.08,NNE,19,5.0,12.0,86,0.00,,,0.00,102,HR-IXPWINDi_r2_v1.2.,2013-07-25 19:12:00,
2013-07-25 15:17:00,61.8,57.5,30.08,NNE,25,8.0,12.0,86,0.00,,,0.00,69,HR-IXPWINDi_r2_v1.2.,2013-07-25 19:17:00,
2013-07-25 15:22:00,61.7,57.4,30.08,North,355,2.0,11.0,86,0.00,,,0.00,90,HR-IXPWINDi_r2_v1.2.,2013-07-25 19:22:00,
2013-07-25 15:27:00,61.7,57.4,30.08,NE,42,5.0,11.0,86,0.00,,,0.00,142,HR-IXPWINDi_r2_v1.2.,2013-07-25 19:27:00,
2013-07-25 15:32:00,61.7,57.7,30.08,NNE,32,6.0,11.0,87,0.00,,,0.01,114,HR-IXPWINDi_r2_v1.2.,2013-07-25 19:32:00,
2013-07-25 15:37:00,61.7,58.0,30.08,NNE,25,9.0,12.0,88,0.00,,,0.01,90,HR-IXPWINDi_r2_v1.2.,2013-07-25 19:37:00,
2013-07-25 15:42:00,61.4,57.7,30.08,NNW,348,5.0,14.0,88,0.00,,,0.01,113,HR-IXPWINDi_r2_v1.2.,2013-07-25 19:42:00,
2013-07-25 15:48:00,61.3,57.6,30.08,North,5,5.0,14.0,88,0.00,,,0.01,90,HR-IXPWINDi_r2_v1.2.,2013-07-25 19:48:00,
2013-07-25 15:53:00,61.1,57.5,30.08,North,360,8.0,13.0,88,0.00,,,0.01,40,HR-IXPWINDi_r2_v1.2.,2013-07-25 19:53:00,
2013-07-25 15:58:00,60.9,57.6,30.08,NNE,17,7.0,14.0,89,0.00,,,0.01,28,HR-IXPWINDi_r2_v1.2.,2013-07-25 19:58:00,
2013-07-25 16:03:00,60.6,57.3,30.08,NNE,22,6.0,14.0,89,0.00,,,0.02,42,HR-IXPWINDi_r2_v1.2.,2013-07-25 20:03:00,
2013-07-25 16:08:00,60.5,57.2,30.08,NNE,15,4.0,12.0,89,0.09,,,0.03,56,HR-IXPWINDi_r2_v1.2.,2013-07-25 20:08:00,
2013-07-25 16:14:00,60.4,57.4,30.08,NNE,24,4.0,12.0,90,0.09,,,0.03,42,HR-IXPWINDi_r2_v1.2.,2013-07-25 20:14:00,
2013-07-25 16:19:00,60.3,57.3,30.08,NNE,19,7.0,10.0,90,0.06,,,0.04,44,HR-IXPWINDi_r2_v1.2.,2013-07-25 20:19:00,
2013-07-25 16:24:00,60.3,57.6,30.08,North,355,5.0,11.0,91,0.09,,,0.05,44,HR-IXPWINDi_r2_v1.2.,2013-07-25 20:24:00,
2013-07-25 16:29:00,60.1,57.4,30.08,NE,36,6.0,12.0,91,0.33,,,0.07,54,HR-IXPWINDi_r2_v1.2.,2013-07-25 20:29:00,
2013-07-25 16:34:00,60.0,57.6,30.08,NE,37,6.0,12.0,92,0.15,,,0.08,67,HR-IXPWINDi_r2_v1.2.,2013-07-25 20:34:00,
2013-07-25 16:40:00,60.0,57.6,30.08,NNE,20,8.0,11.0,92,0.12,,,0.09,76,HR-IXPWINDi_r2_v1.2.,2013-07-25 20:40:00,
2013-07-25 16:45:00,60.0,57.6,30.08,NE,35,9.0,13.0,92,0.08,,,0.09,60,HR-IXPWINDi_r2_v1.2.,2013-07-25 20:45:00,
2013-07-25 16:50:00,59.9,57.5,30.08,North,5,8.0,14.0,92,0.05,,,0.09,53,HR-IXPWINDi_r2_v1.2.,2013-07-25 20:50:00,
2013-07-25 16:55:00,59.9,57.8,30.08,NE,42,7.0,14.0,93,0.04,,,0.10,54,HR-IXPWINDi_r2_v1.2.,2013-07-25 20:55:00,
2013-07-25 17:00:00,60.0,57.9,30.09,NE,37,3.0,11.0,93,0.14,,,0.11,47,HR-IXPWINDi_r2_v1.2.,2013-07-25 21:00:00,
2013-07-25 17:05:00,60.0,57.9,30.09,NNE,23,5.0,8.0,93,0.07,,,0.11,42,HR-IXPWINDi_r2_v1.2.,2013-07-25 21:05:00,
2013-07-25 17:10:00,59.9,57.8,30.09,North,5,5.0,9.0,93,0.04,,,0.11,54,HR-IXPWINDi_r2_v1.2.,2013-07-25 21:10:00,
2013-07-25 17:16:00,59.9,57.8,30.09,NNE,15,4.0,9.0,93,0.00,,,0.11,51,HR-IXPWINDi_r2_v1.2.,2013-07-25 21:16:00,
2013-07-25 17:21:00,59.9,57.8,30.08,North,11,2.0,9.0,93,0.00,,,0.12,42,HR-IXPWINDi_r2_v1.2.,2013-07-25 21:21:00,
2013-07-25 17:26:00,59.8,57.7,30.09,NNE,19,7.0,8.0,93,0.00,,,0.12,39,HR-IXPWINDi_r2_v1.2.,2013-07-25 21:26:00,
2013-07-25 17:31:00,60.0,58.2,30.09,NE,53,6.0,8.0,94,0.00,,,0.12,33,HR-IXPWINDi_r2_v1.2.,2013-07-25 21:31:00,
2013-07-25 17:37:00,59.9,57.8,30.09,North,5,8.0,11.0,93,0.00,,,0.12,28,HR-IXPWINDi_r2_v1.2.,2013-07-25 21:37:00,
2013-07-25 17:42:00,59.9,58.1,30.09,NE,36,4.0,11.0,94,0.00,,,0.12,26,HR-IXPWINDi_r2_v1.2.,2013-07-25 21:42:00,
2013-07-25 17:47:00,59.9,57.8,30.09,NNE,19,5.0,11.0,93,0.00,,,0.12,23,HR-IXPWINDi_r2_v1.2.,2013-07-25 21:47:00,
2013-07-25 17:52:00,59.9,58.1,30.09,North,360,6.0,9.0,94,0.00,,,0.12,26,HR-IXPWINDi_r2_v1.2.,2013-07-25 21:52:00,
2013-07-25 17:57:00,59.9,58.1,30.08,North,5,5.0,8.0,94,0.00,,,0.12,28,HR-IXPWINDi_r2_v1.2.,2013-07-25 21:57:00,
2013-07-25 18:02:00,59.9,58.1,30.09,NNE,20,3.0,8.0,94,0.00,,,0.13,28,HR-IXPWINDi_r2_v1.2.,2013-07-25 22:02:00,
2013-07-25 18:07:00,59.9,58.1,30.09,ENE,59,0.0,8.0,94,0.00,,,0.13,21,HR-IXPWINDi_r2_v1.2.,2013-07-25 22:07:00,
2013-07-25 18:12:00,60.0,58.2,30.09,North,10,3.0,8.0,94,0.00,,,0.13,19,HR-IXPWINDi_r2_v1.2.,2013-07-25 22:12:00,
2013-07-25 18:17:00,60.0,58.2,30.09,NNE,24,5.0,6.0,94,0.00,,,0.13,19,HR-IXPWINDi_r2_v1.2.,2013-07-25 22:17:00,
2013-07-25 18:23:00,60.0,58.2,30.09,North,5,4.0,6.0,94,0.00,,,0.13,23,HR-IXPWINDi_r2_v1.2.,2013-07-25 22:23:00,
2013-07-25 18:28:00,60.0,58.2,30.09,NNE,15,5.0,7.0,94,0.00,,,0.13,28,HR-IXPWINDi_r2_v1.2.,2013-07-25 22:28:00,
2013-07-25 18:33:00,60.1,58.3,30.09,NNE,26,4.0,8.0,94,0.00,,,0.13,23,HR-IXPWINDi_r2_v1.2.,2013-07-25 22:33:00,
2013-07-25 18:38:00,60.2,58.4,30.09,NNE,18,2.0,8.0,94,0.00,,,0.13,25,HR-IXPWINDi_r2_v1.2.,2013-07-25 22:38:00,
2013-07-25 18:44:00,60.2,58.4,30.09,NNE,14,4.0,8.0,94,0.00,,,0.13,21,HR-IXPWINDi_r2_v1.2.,2013-07-25 22:44:00,
2013-07-25 18:49:00,60.2,58.4,30.09,NNE,32,6.0,9.0,94,0.00,,,0.13,21,HR-IXPWINDi_r2_v1.2.,2013-07-25 22:49:00,
2013-07-25 18:54:00,60.3,58.5,30.09,NNW,340,5.0,9.0,94,0.00,,,0.13,16,HR-IXPWINDi_r2_v1.2.,2013-07-25 22:54:00,
2013-07-25 19:00:00,60.3,58.5,30.09,North,355,2.0,8.0,94,0.00,,,0.14,12,HR-IXPWINDi_r2_v1.2.,2013-07-25 23:00:00,
2013-07-25 19:05:00,60.3,58.5,30.09,NNW,348,2.0,8.0,94,0.00,,,0.14,9,HR-IXPWINDi_r2_v1.2.,2013-07-25 23:05:00,
2013-07-25 19:10:00,60.3,58.5,30.09,North,9,3.0,7.0,94,0.00,,,0.14,9,HR-IXPWINDi_r2_v1.2.,2013-07-25 23:10:00,
2013-07-25 19:15:00,60.2,58.4,30.09,North,9,4.0,9.0,94,0.00,,,0.14,7,HR-IXPWINDi_r2_v1.2.,2013-07-25 23:15:00,
2013-07-25 19:20:00,60.3,58.5,30.09,NNE,19,4.0,9.0,94,0.00,,,0.14,5,HR-IXPWINDi_r2_v1.2.,2013-07-25 23:20:00,
2013-07-25 19:25:00,60.3,58.5,30.09,NNE,17,4.0,8.0,94,0.00,,,0.14,5,HR-IXPWINDi_r2_v1.2.,2013-07-25 23:25:00,
2013-07-25 19:30:00,60.3,58.5,30.10,North,355,4.0,9.0,94,0.00,,,0.14,0,HR-IXPWINDi_r2_v1.2.,2013-07-25 23:30:00,
2013-07-25 19:35:00,60.3,58.5,30.09,NNE,19,4.0,9.0,94,0.00,,,0.14,0,HR-IXPWINDi_r2_v1.2.,2013-07-25 23:35:00,
2013-07-25 19:41:00,60.3,58.5,30.09,NE,40,5.0,7.0,94,0.00,,,0.14,0,HR-IXPWINDi_r2_v1.2.,2013-07-25 23:41:00,
2013-07-25 19:46:00,60.3,58.5,30.09,NNE,20,6.0,8.0,94,0.00,,,0.14,0,HR-IXPWINDi_r2_v1.2.,2013-07-25 23:46:00,
2013-07-25 19:51:00,60.3,58.8,30.09,North,355,4.0,9.0,95,0.00,,,0.14,0,HR-IXPWINDi_r2_v1.2.,2013-07-25 23:51:00,
2013-07-25 19:56:00,60.2,58.4,30.09,NNE,21,9.0,10.0,94,0.00,,,0.15,0,HR-IXPWINDi_r2_v1.2.,2013-07-25 23:56:00,
2013-07-25 20:02:00,60.2,58.7,30.08,NNE,22,7.0,11.0,95,0.00,,,0.15,0,HR-IXPWINDi_r2_v1.2.,2013-07-26 00:02:00,
2013-07-25 20:07:00,60.2,58.7,30.08,NNE,22,6.0,11.0,95,0.00,,,0.15,0,HR-IXPWINDi_r2_v1.2.,2013-07-26 00:07:00,
2013-07-25 20:12:00,60.2,58.7,30.08,NNE,28,3.0,11.0,95,0.00,,,0.15,0,HR-IXPWINDi_r2_v1.2.,2013-07-26 00:12:00,
2013-07-25 20:17:00,60.3,58.8,30.08,NNE,22,6.0,8.0,95,0.00,,,0.15,0,HR-IXPWINDi_r2_v1.2.,2013-07-26 00:17:00,
2013-07-25 20:22:00,60.3,58.8,30.08,North,355,5.0,10.0,95,0.00,,,0.15,0,HR-IXPWINDi_r2_v1.2.,2013-07-26 00:22:00,
2013-07-25 20:27:00,60.3,58.8,30.08,NNE,28,4.0,10.0,95,0.00,,,0.15,0,HR-IXPWINDi_r2_v1.2.,2013-07-26 00:27:00,
2013-07-25 20:32:00,60.3,58.8,30.08,North,355,9.0,9.0,95,0.00,,,0.15,0,HR-IXPWINDi_r2_v1.2.,2013-07-26 00:32:00,
2013-07-25 20:38:00,60.3,58.8,30.08,North,5,7.0,10.0,95,0.00,,,0.15,0,HR-IXPWINDi_r2_v1.2.,2013-07-26 00:38:00,
2013-07-25 20:43:00,60.3,58.8,30.07,NNE,20,6.0,10.0,95,0.00,,,0.15,0,HR-IXPWINDi_r2_v1.2.,2013-07-26 00:43:00,
2013-07-25 20:48:00,60.4,58.9,30.08,North,5,4.0,10.0,95,0.00,,,0.15,0,HR-IXPWINDi_r2_v1.2.,2013-07-26 00:48:00,
2013-07-25 20:53:00,60.4,58.9,30.08,NNE,17,5.0,8.0,95,0.00,,,0.15,0,HR-IXPWINDi_r2_v1.2.,2013-07-26 00:53:00,
2013-07-25 20:58:00,60.5,59.0,30.08,NNE,15,3.0,8.0,95,0.00,,,0.15,0,HR-IXPWINDi_r2_v1.2.,2013-07-26 00:58:00,
2013-07-25 21:03:00,60.5,59.0,30.08,NNE,18,6.0,8.0,95,0.00,,,0.15,0,HR-IXPWINDi_r2_v1.2.,2013-07-26 01:03:00,
2013-07-25 21:08:00,60.5,59.0,30.08,NNE,17,4.0,8.0,95,0.00,,,0.15,0,HR-IXPWINDi_r2_v1.2.,2013-07-26 01:08:00,
2013-07-25 21:13:00,60.5,59.0,30.08,NNE,13,5.0,9.0,95,0.00,,,0.15,0,HR-IXPWINDi_r2_v1.2.,2013-07-26 01:13:00,
2013-07-25 21:19:00,60.5,59.0,30.08,NNE,18,8.0,9.0,95,0.00,,,0.15,0,HR-IXPWINDi_r2_v1.2.,2013-07-26 01:19:00,
2013-07-25 21:24:00,60.5,59.0,30.08,North,9,6.0,9.0,95,0.00,,,0.15,0,HR-IXPWINDi_r2_v1.2.,2013-07-26 01:24:00,
2013-07-25 21:29:00,60.6,59.1,30.08,NNE,26,2.0,8.0,95,0.00,,,0.15,0,HR-IXPWINDi_r2_v1.2.,2013-07-26 01:29:00,
2013-07-25 21:34:00,60.6,59.1,30.08,NNE,14,5.0,8.0,95,0.00,,,0.15,0,HR-IXPWINDi_r2_v1.2.,2013-07-26 01:34:00,
2013-07-25 21:40:00,60.7,59.2,30.08,NNE,30,4.0,7.0,95,0.00,,,0.15,0,HR-IXPWINDi_r2_v1.2.,2013-07-26 01:40:00,
2013-07-25 21:45:00,60.7,59.2,30.08,NNE,13,5.0,7.0,95,0.00,,,0.15,0,HR-IXPWINDi_r2_v1.2.,2013-07-26 01:45:00,
2013-07-25 21:50:00,60.8,59.3,30.08,North,360,5.0,6.0,95,0.00,,,0.15,0,HR-IXPWINDi_r2_v1.2.,2013-07-26 01:50:00,
2013-07-25 21:55:00,60.8,59.3,30.08,NE,34,4.0,6.0,95,0.00,,,0.15,0,HR-IXPWINDi_r2_v1.2.,2013-07-26 01:55:00,
2013-07-25 22:00:00,60.8,59.3,30.07,North,355,4.0,7.0,95,0.00,,,0.15,0,HR-IXPWINDi_r2_v1.2.,2013-07-26 02:00:00,
2013-07-25 22:05:00,60.9,59.4,30.07,NNE,15,2.0,7.0,95,0.00,,,0.15,0,HR-IXPWINDi_r2_v1.2.,2013-07-26 02:05:00,
2013-07-25 22:10:00,60.9,59.4,30.07,North,5,3.0,6.0,95,0.00,,,0.15,0,HR-IXPWINDi_r2_v1.2.,2013-07-26 02:10:00,
2013-07-25 22:15:00,60.9,59.4,30.07,NNE,13,3.0,8.0,95,0.00,,,0.15,0,HR-IXPWINDi_r2_v1.2.,2013-07-26 02:15:00,
2013-07-25 22:21:00,60.9,59.7,30.07,North,9,5.0,8.0,96,0.00,,,0.15,0,HR-IXPWINDi_r2_v1.2.,2013-07-26 02:21:00,
2013-07-25 22:27:00,61.0,59.5,30.07,North,5,3.0,7.0,95,0.00,,,0.15,0,HR-IXPWINDi_r2_v1.2.,2013-07-26 02:27:00,
2013-07-25 22:32:00,61.0,59.5,30.07,NNE,14,5.0,8.0,95,0.00,,,0.15,0,HR-IXPWINDi_r2_v1.2.,2013-07-26 02:32:00,
2013-07-25 22:37:00,61.0,59.8,30.07,NNE,16,1.0,8.0,96,0.00,,,0.15,0,HR-IXPWINDi_r2_v1.2.,2013-07-26 02:37:00,
2013-07-25 22:42:00,61.0,59.8,30.07,North,355,6.0,7.0,96,0.00,,,0.15,0,HR-IXPWINDi_r2_v1.2.,2013-07-26 02:42:00,
2013-07-25 22:47:00,60.9,59.7,30.07,North,5,6.0,8.0,96,0.00,,,0.15,0,HR-IXPWINDi_r2_v1.2.,2013-07-26 02:47:00,
2013-07-25 22:53:00,60.9,59.7,30.06,North,355,2.0,8.0,96,0.00,,,0.15,0,HR-IXPWINDi_r2_v1.2.,2013-07-26 02:53:00,
2013-07-25 22:58:00,60.9,59.7,30.06,NNE,12,6.0,9.0,96,0.00,,,0.15,0,HR-IXPWINDi_r2_v1.2.,2013-07-26 02:58:00,
2013-07-25 23:03:00,60.9,59.7,30.07,NNW,343,3.0,9.0,96,0.00,,,0.15,0,HR-IXPWINDi_r2_v1.2.,2013-07-26 03:03:00,
2013-07-25 23:08:00,60.8,59.6,30.07,NNE,30,5.0,7.0,96,0.00,,,0.15,0,HR-IXPWINDi_r2_v1.2.,2013-07-26 03:08:00,
2013-07-25 23:14:00,60.8,59.6,30.06,NNE,19,6.0,7.0,96,0.00,,,0.15,0,HR-IXPWINDi_r2_v1.2.,2013-07-26 03:14:00,
2013-07-25 23:19:00,60.8,59.6,30.06,North,10,3.0,8.0,96,0.00,,,0.15,0,HR-IXPWINDi_r2_v1.2.,2013-07-26 03:19:00,
2013-07-25 23:24:00,60.8,59.6,30.06,North,11,2.0,8.0,96,0.00,,,0.15,0,HR-IXPWINDi_r2_v1.2.,2013-07-26 03:24:00,
2013-07-25 23:29:00,60.7,59.5,30.06,North,5,2.0,8.0,96,0.00,,,0.15,0,HR-IXPWINDi_r2_v1.2.,2013-07-26 03:29:00,
2013-07-25 23:34:00,60.7,59.5,30.06,North,5,7.0,8.0,96,0.00,,,0.15,0,HR-IXPWINDi_r2_v1.2.,2013-07-26 03:34:00,
2013-07-25 23:39:00,60.7,59.5,30.06,North,9,4.0,8.0,96,0.00,,,0.15,0,HR-IXPWINDi_r2_v1.2.,2013-07-26 03:39:00,
2013-07-25 23:44:00,60.6,59.4,30.06,North,9,6.0,8.0,96,0.00,,,0.15,0,HR-IXPWINDi_r2_v1.2.,2013-07-26 03:44:00,
2013-07-25 23:49:00,60.6,59.4,30.06,NNW,344,4.0,10.0,96,0.00,,,0.15,0,HR-IXPWINDi_r2_v1.2.,2013-07-26 03:49:00,
2013-07-25 23:54:00,60.6,59.4,30.05,NNE,29,8.0,11.0,96,0.00,,,0.15,0,HR-IXPWINDi_r2_v1.2.,2013-07-26 03:54:00,